EZY927 EGBB-EGJJ

Flight info

Callsign EZY927
Flight time 0h 45m
Altitude 27000
Route ADMEX Y321 CPT/N0357F230 Y321 PEPIS/N0386F280 Q41 SAM N63 LELNA
Aircraft A320/M-SDE2E3FGHIRWXY/LB1

Departure

Time 2026-05-04 15:08
Airport Birmingham Airport (EGBB)

Arrival

Time 2026-05-04 15:53
Airport Jersey Airport (EGJJ)
Time Latitude Longitude Altitude Speed Heading
2026-05-04 14:35 52.45271 -1.73525 324 ft 0 kts 326°
2026-05-04 14:57 52.45261 -1.73514 322 ft 3 kts 326°
2026-05-04 14:57 52.45247 -1.73498 323 ft 2 kts 326°
2026-05-04 14:57 52.45230 -1.73480 323 ft 3 kts 324°
2026-05-04 14:57 52.45214 -1.73460 323 ft 3 kts 313°
2026-05-04 14:58 52.45203 -1.73437 322 ft 1 kts 296°
2026-05-04 14:58 52.45206 -1.73460 323 ft 3 kts 270°
2026-05-04 14:58 52.45197 -1.73486 323 ft 3 kts 236°
2026-05-04 14:58 52.45188 -1.73508 323 ft 1 kts 236°
2026-05-04 14:59 52.45188 -1.73509 323 ft 0 kts 236°
2026-05-04 15:01 52.45186 -1.73513 323 ft 3 kts 236°
2026-05-04 15:02 52.45158 -1.73580 323 ft 8 kts 236°
2026-05-04 15:02 52.45130 -1.73648 323 ft 7 kts 236°
2026-05-04 15:02 52.45106 -1.73706 323 ft 6 kts 236°
2026-05-04 15:02 52.45082 -1.73748 323 ft 5 kts 219°
2026-05-04 15:03 52.45059 -1.73782 322 ft 7 kts 229°
2026-05-04 15:03 52.45015 -1.73863 323 ft 6 kts 192°
2026-05-04 15:03 52.44970 -1.73817 323 ft 11 kts 143°
2026-05-04 15:03 52.44908 -1.73741 323 ft 10 kts 147°
2026-05-04 15:04 52.44850 -1.73689 323 ft 9 kts 167°
2026-05-04 15:04 52.44791 -1.73701 324 ft 8 kts 196°
2026-05-04 15:04 52.44745 -1.73731 324 ft 6 kts 211°
2026-05-04 15:04 52.44720 -1.73776 323 ft 4 kts 234°
2026-05-04 15:05 52.44719 -1.73779 325 ft 0 kts 234°
2026-05-04 15:07 52.44689 -1.73846 327 ft 7 kts 234°
2026-05-04 15:07 52.44669 -1.73896 327 ft 6 kts 236°
2026-05-04 15:07 52.44649 -1.73952 327 ft 5 kts 257°
2026-05-04 15:07 52.44662 -1.73993 327 ft 3 kts 314°
2026-05-04 15:08 52.44704 -1.74044 327 ft 27 kts 324°
2026-05-04 15:08 52.45092 -1.74476 329 ft 103 kts 326°
2026-05-04 15:08 52.45855 -1.75306 371 ft 154 kts 327°
2026-05-04 15:08 52.46760 -1.76224 1045 ft 153 kts 328°
2026-05-04 15:09 52.47670 -1.77231 1634 ft 166 kts 326°
2026-05-04 15:09 52.48668 -1.78371 2007 ft 189 kts 326°
2026-05-04 15:09 52.49841 -1.79676 2435 ft 213 kts 333°
2026-05-04 15:10 52.52770 -1.79331 3896 ft 229 kts 37°
2026-05-04 15:10 52.53736 -1.77262 4760 ft 234 kts 70°
2026-05-04 15:10 52.53620 -1.71922 6470 ft 242 kts 103°
2026-05-04 15:11 52.53243 -1.69301 7301 ft 245 kts 104°
2026-05-04 15:11 52.52561 -1.66718 8083 ft 253 kts 124°
2026-05-04 15:11 52.51322 -1.64491 8497 ft 276 kts 136°
2026-05-04 15:11 52.49918 -1.62246 9198 ft 286 kts 136°
2026-05-04 15:12 52.48482 -1.59948 10039 ft 291 kts 136°
2026-05-04 15:12 52.47029 -1.57612 10887 ft 294 kts 136°
2026-05-04 15:12 52.45437 -1.55454 11606 ft 303 kts 147°
2026-05-04 15:12 52.43572 -1.53575 11920 ft 325 kts 149°
2026-05-04 15:13 52.41598 -1.51636 12541 ft 335 kts 149°
2026-05-04 15:13 52.39583 -1.49667 13290 ft 339 kts 149°
2026-05-04 15:13 52.37541 -1.47692 14031 ft 343 kts 152°
2026-05-04 15:13 52.35340 -1.46167 14741 ft 346 kts 163°
2026-05-04 15:14 52.32979 -1.45340 15442 ft 348 kts 171°
2026-05-04 15:14 52.30578 -1.44665 16139 ft 352 kts 171°
2026-05-04 15:14 52.28155 -1.43982 16822 ft 355 kts 171°
2026-05-04 15:14 52.25710 -1.43292 17487 ft 358 kts 171°
2026-05-04 15:15 52.23244 -1.42597 18147 ft 361 kts 171°
2026-05-04 15:15 52.20757 -1.41896 18778 ft 364 kts 171°
2026-05-04 15:15 52.18252 -1.41187 19393 ft 367 kts 171°
2026-05-04 15:16 52.13172 -1.39751 20593 ft 373 kts 171°
2026-05-04 15:16 52.10607 -1.39029 21153 ft 376 kts 171°
2026-05-04 15:16 52.05403 -1.37573 22234 ft 382 kts 171°
2026-05-04 15:17 52.02807 -1.36848 22741 ft 385 kts 171°
2026-05-04 15:17 51.97463 -1.35350 23759 ft 390 kts 171°
2026-05-04 15:17 51.94824 -1.34611 24249 ft 392 kts 171°
2026-05-04 15:18 51.92130 -1.33858 24729 ft 394 kts 171°
2026-05-04 15:18 51.89419 -1.33102 25192 ft 396 kts 171°
2026-05-04 15:18 51.86695 -1.32340 25632 ft 399 kts 171°
2026-05-04 15:19 51.81194 -1.30803 26497 ft 403 kts 171°
2026-05-04 15:19 51.78418 -1.30033 26899 ft 406 kts 171°
2026-05-04 15:19 51.72921 -1.28512 27052 ft 387 kts 171°
2026-05-04 15:20 51.70301 -1.27783 27053 ft 379 kts 171°
2026-05-04 15:20 51.67710 -1.27066 27050 ft 376 kts 171°
2026-05-04 15:20 51.65120 -1.26632 27047 ft 374 kts 179°
2026-05-04 15:20 51.62519 -1.26472 27043 ft 374 kts 179°
2026-05-04 15:21 51.59918 -1.26335 27039 ft 374 kts 179°
2026-05-04 15:21 51.57315 -1.26209 27036 ft 374 kts 179°
2026-05-04 15:21 51.52113 -1.25965 27030 ft 374 kts 179°
2026-05-04 15:22 51.49516 -1.25843 27028 ft 373 kts 179°
2026-05-04 15:22 51.46921 -1.25718 27027 ft 373 kts 179°
2026-05-04 15:22 51.41729 -1.25466 27026 ft 373 kts 179°
2026-05-04 15:23 51.39136 -1.25340 27026 ft 373 kts 179°
2026-05-04 15:23 51.36539 -1.25209 27024 ft 373 kts 179°
2026-05-04 15:23 51.33946 -1.25071 27023 ft 373 kts 179°
2026-05-04 15:23 51.31354 -1.24934 27022 ft 373 kts 179°
2026-05-04 15:24 51.26166 -1.24676 27019 ft 373 kts 179°
2026-05-04 15:24 51.21014 -1.24456 27014 ft 372 kts 182°
2026-05-04 15:25 51.18450 -1.24900 27012 ft 371 kts 192°
2026-05-04 15:25 51.15957 -1.25920 27010 ft 370 kts 195°
2026-05-04 15:25 51.13463 -1.26978 27004 ft 370 kts 195°
2026-05-04 15:26 51.08484 -1.29076 27001 ft 370 kts 195°
2026-05-04 15:26 51.06802 -1.29781 27001 ft 370 kts 195°
2026-05-04 15:26 51.01820 -1.31867 26996 ft 370 kts 195°
2026-05-04 15:27 50.99330 -1.32904 26996 ft 370 kts 195°
2026-05-04 15:27 50.94432 -1.35363 26994 ft 369 kts 206°
2026-05-04 15:28 50.89878 -1.39016 26991 ft 369 kts 206°
2026-05-04 15:28 50.87581 -1.40858 26989 ft 369 kts 206°
2026-05-04 15:28 50.83002 -1.44521 26987 ft 369 kts 206°
2026-05-04 15:29 50.80710 -1.46346 26986 ft 369 kts 206°
2026-05-04 15:30 50.71537 -1.53609 26988 ft 369 kts 206°
2026-05-04 15:30 50.64656 -1.59047 26990 ft 368 kts 206°
2026-05-04 15:31 50.60068 -1.62658 26990 ft 368 kts 206°
2026-05-04 15:31 50.57778 -1.64463 26992 ft 368 kts 206°
2026-05-04 15:32 50.50912 -1.69863 26994 ft 368 kts 206°
2026-05-04 15:32 50.46338 -1.73448 26996 ft 367 kts 206°
2026-05-04 15:33 50.41763 -1.77019 26996 ft 367 kts 205°
2026-05-04 15:34 50.34908 -1.82351 26995 ft 367 kts 205°
2026-05-04 15:34 50.32624 -1.84127 26996 ft 366 kts 205°
2026-05-04 15:34 50.28058 -1.87676 26994 ft 366 kts 205°
2026-05-04 15:35 50.23495 -1.91219 26993 ft 366 kts 205°
2026-05-04 15:35 50.21213 -1.92987 26992 ft 366 kts 205°
2026-05-04 15:35 50.18909 -1.94767 27006 ft 376 kts 205°
2026-05-04 15:36 50.14176 -1.98416 26357 ft 378 kts 205°
2026-05-04 15:36 50.11824 -2.00225 25815 ft 376 kts 205°
2026-05-04 15:36 50.09485 -2.02018 25259 ft 373 kts 205°
2026-05-04 15:37 50.07167 -2.03799 24734 ft 370 kts 205°
2026-05-04 15:37 50.04865 -2.05574 24205 ft 368 kts 205°
2026-05-04 15:37 50.02579 -2.07334 23677 ft 365 kts 205°
2026-05-04 15:37 50.00310 -2.09076 23147 ft 363 kts 205°
2026-05-04 15:38 49.98008 -2.10649 22634 ft 360 kts 197°
2026-05-04 15:38 49.95584 -2.11577 22119 ft 358 kts 192°
2026-05-04 15:38 49.93154 -2.12402 21619 ft 357 kts 192°
2026-05-04 15:38 49.90729 -2.13226 21053 ft 357 kts 192°
2026-05-04 15:39 49.88315 -2.14044 20572 ft 355 kts 192°
2026-05-04 15:39 49.85911 -2.14859 20118 ft 352 kts 192°
2026-05-04 15:39 49.81130 -2.16491 19155 ft 350 kts 192°
2026-05-04 15:40 49.78762 -2.17306 18696 ft 348 kts 192°
2026-05-04 15:40 49.76404 -2.18112 18255 ft 346 kts 192°
2026-05-04 15:40 49.74059 -2.18908 17814 ft 344 kts 192°
2026-05-04 15:40 49.71762 -2.19688 17383 ft 342 kts 192°
2026-05-04 15:41 49.69449 -2.20527 16933 ft 341 kts 194°
2026-05-04 15:41 49.67166 -2.21491 16489 ft 340 kts 195°
2026-05-04 15:41 49.64901 -2.22519 16056 ft 339 kts 196°
2026-05-04 15:41 49.62660 -2.23564 15647 ft 336 kts 197°
2026-05-04 15:42 49.60428 -2.24600 15275 ft 333 kts 196°
2026-05-04 15:42 49.58206 -2.25616 14885 ft 331 kts 196°
2026-05-04 15:42 49.55997 -2.26612 14432 ft 331 kts 196°
2026-05-04 15:42 49.53804 -2.27588 14113 ft 326 kts 195°
2026-05-04 15:43 49.51624 -2.28551 13682 ft 325 kts 195°
2026-05-04 15:43 49.49454 -2.29512 13270 ft 324 kts 195°
2026-05-04 15:43 49.47295 -2.30468 12873 ft 322 kts 196°
2026-05-04 15:43 49.45147 -2.31418 12469 ft 320 kts 196°
2026-05-04 15:44 49.43012 -2.32361 12063 ft 318 kts 196°
2026-05-04 15:44 49.40887 -2.33301 11659 ft 316 kts 196°
2026-05-04 15:44 49.38778 -2.34231 11251 ft 315 kts 196°
2026-05-04 15:44 49.36678 -2.35159 10835 ft 313 kts 196°
2026-05-04 15:45 49.34590 -2.36083 10412 ft 312 kts 196°
2026-05-04 15:45 49.32509 -2.37003 10011 ft 310 kts 196°
2026-05-04 15:45 49.30460 -2.37902 9819 ft 300 kts 195°
2026-05-04 15:45 49.28478 -2.38769 9566 ft 294 kts 195°
2026-05-04 15:46 49.26526 -2.39624 9203 ft 291 kts 195°
2026-05-04 15:46 49.24556 -2.40262 8811 ft 289 kts 181°
2026-05-04 15:46 49.22606 -2.39753 8303 ft 284 kts 156°
2026-05-04 15:46 49.21003 -2.38061 7617 ft 281 kts 131°
2026-05-04 15:47 49.20015 -2.35525 6928 ft 278 kts 107°
2026-05-04 15:47 49.19739 -2.32617 6451 ft 276 kts 85°
2026-05-04 15:47 49.20294 -2.29867 6134 ft 272 kts 57°
2026-05-04 15:47 49.21616 -2.27862 5815 ft 270 kts 29°
2026-05-04 15:48 49.23394 -2.27041 5484 ft 269 kts
2026-05-04 15:48 49.25263 -2.26911 5182 ft 269 kts
2026-05-04 15:48 49.28661 -2.28666 4534 ft 265 kts 313°
2026-05-04 15:49 49.29550 -2.31103 4210 ft 264 kts 284°
2026-05-04 15:49 49.29558 -2.33889 3888 ft 264 kts 255°
2026-05-04 15:49 49.28686 -2.36329 3565 ft 263 kts 225°
2026-05-04 15:49 49.27156 -2.37807 3240 ft 262 kts 196°
2026-05-04 15:50 49.25351 -2.38169 3028 ft 262 kts 182°
2026-05-04 15:50 49.23527 -2.38244 3035 ft 259 kts 180°
2026-05-04 15:50 49.21797 -2.38245 3089 ft 237 kts 174°
2026-05-04 15:50 49.20345 -2.37528 3320 ft 210 kts 148°
2026-05-04 15:51 49.19366 -2.35936 3060 ft 204 kts 110°
2026-05-04 15:51 49.19303 -2.33903 3010 ft 188 kts 81°
2026-05-04 15:51 49.19535 -2.32053 2917 ft 166 kts 76°
2026-05-04 15:51 49.19780 -2.30434 2853 ft 149 kts 76°
2026-05-04 15:52 49.20015 -2.28913 2477 ft 148 kts 76°
2026-05-04 15:52 49.20164 -2.27348 2081 ft 149 kts 82°
2026-05-04 15:52 49.20279 -2.25780 1671 ft 149 kts 82°
2026-05-04 15:52 49.20412 -2.24179 1130 ft 155 kts 81°
2026-05-04 15:53 49.20549 -2.22519 633 ft 155 kts 81°
2026-05-04 15:53 49.20684 -2.20944 364 ft 144 kts 81°
2026-05-04 15:53 49.20800 -2.19558 286 ft 104 kts 82°
2026-05-04 15:53 49.20869 -2.18749 283 ft 49 kts 82°
2026-05-04 15:54 49.20891 -2.18442 281 ft 16 kts 101°
2026-05-04 15:54 49.20811 -2.18378 284 ft 12 kts 191°
2026-05-04 15:54 49.20749 -2.18449 290 ft 10 kts 236°
2026-05-04 15:54 49.20729 -2.18555 284 ft 10 kts 259°
2026-05-04 15:55 49.20721 -2.18653 284 ft 9 kts 263°
2026-05-04 15:55 49.20714 -2.18741 284 ft 9 kts 264°
2026-05-04 15:55 49.20700 -2.18909 284 ft 19 kts 262°
2026-05-04 15:55 49.20683 -2.19115 284 ft 18 kts 263°
2026-05-04 15:56 49.20700 -2.19317 284 ft 20 kts 283°
2026-05-04 15:56 49.20698 -2.19536 284 ft 21 kts 260°
2026-05-04 15:56 49.20619 -2.19713 284 ft 16 kts 246°
2026-05-04 15:56 49.20613 -2.19844 284 ft 12 kts 258°
2026-05-04 15:57 49.20569 -2.19925 284 ft 10 kts 195°
2026-05-04 15:57 49.20492 -2.19924 284 ft 14 kts 177°
2026-05-04 15:57 49.20432 -2.19861 284 ft 10 kts 90°
2026-05-04 15:57 49.20437 -2.19762 284 ft 8 kts 84°
2026-05-04 15:58 49.20443 -2.19682 284 ft 7 kts 86°
2026-05-04 15:58 49.20433 -2.19612 284 ft 6 kts 106°
2026-05-04 15:58 49.20423 -2.19551 284 ft 5 kts 95°
2026-05-04 15:58 49.20440 -2.19526 284 ft 3 kts
2026-05-04 15:59 49.20456 -2.19521 284 ft 2 kts 16°
2026-05-04 15:59 49.20471 -2.19513 287 ft 0 kts 16°